MOOI WEER BOXTEL

Weerstation in Boxtel

Actuele weerinformatie en voorspellingen


Onweer radar Meer informatie blitzortung!


Regen radar Meer informatie rain snow radar


Meer informatie

Template documentation
and downloads

Weblog Hans on Experience

Profiel Hans Mestrum



Het weer levert geen direct gevaar op.    Er zijn geen waarschuwingen afgegeven.

Weather Underground Historische gegevens

Dagelijkse Samenvatting juni 20, 2018 Eenheden:  Metrisch    Engels   Beide
« Vorige Dag
Volgende Dag »
Dagelijkse Wekelijkse Maandelijkse Jaarlijkse Aangepaste
  Huidig: Hoog: Laag: Gemiddeld:
Temperatuur: -2.7 °C -17.8 °C -9.8 °C -7.8 °C
Dauwpunt: -8 °C -17.8 °C -10.2 °C -9.2 °C
Vochtigheid: 56 % Humidity % 56 % 86 %
Wind snelheid: 0 km/h 0 km/h 0 km/h 0.5 km/h
Windvlaag: 10.3 km/h 0 km/h - -
Wind:Calm - - SE
Luchtdruk: 34462.7 hPa 0 hPa 34462.7 hPa -
Neerslag: 0 mm      
Historical Graphs
 
 
Tabel voor juni 20, 2018
Tijd Temperatuur Dauwpunt Luchtdruk Wind Wind snelheid Windvlaag Vochtigheid Regenval per uur
-17.8 °C -17.8 °C 0 hPa Calm     Humidity % 0 mm
00:04 -7.4 °C -8.6 °C 34577.8 hPa Calm     87 % 0 mm
00:09 -7.4 °C -8.6 °C 34577.8 hPa Calm     87 % 0 mm
00:14 -7.4 °C -8.7 °C 34577.8 hPa Calm     87 % 0 mm
00:19 -7.4 °C -8.7 °C 34577.8 hPa Calm     87 % 0 mm
00:24 -7.4 °C -8.6 °C 34577.8 hPa Calm     88 % 0 mm
00:28 -7.4 °C -8.6 °C 34577.8 hPa Calm     88 % 0 mm
00:34 -7.4 °C -8.6 °C 34577.8 hPa Calm     88 % 0 mm
00:39 -7.5 °C -8.6 °C 34577.8 hPa Calm     88 % 0 mm
00:44 -7.6 °C -8.7 °C 34577.8 hPa Calm     88 % 0 mm
00:49 -7.6 °C -8.7 °C 34577.8 hPa Calm     88 % 0 mm
00:54 -7.6 °C -8.7 °C 34577.8 hPa Calm     88 % 0 mm
00:59 -7.6 °C -8.7 °C 34577.8 hPa Calm     88 % 0 mm
01:04 -7.7 °C -8.8 °C 34577.8 hPa Calm     88 % 0 mm
01:09 -7.7 °C -8.8 °C 34577.8 hPa Calm     88 % 0 mm
01:14 -7.8 °C -8.8 °C 34567.7 hPa Calm     89 % 0 mm
01:19 -7.9 °C -8.9 °C 34577.8 hPa Calm     89 % 0 mm
01:24 -7.9 °C -8.9 °C 34567.7 hPa Calm     89 % 0 mm
01:29 -8 °C -8.9 °C 34567.7 hPa Calm     90 % 0 mm
01:34 -8.1 °C -9 °C 34567.7 hPa Calm     90 % 0 mm
01:39 -8.2 °C -9.1 °C 34567.7 hPa Calm     90 % 0 mm
01:44 -8.2 °C -9.2 °C 34567.7 hPa Calm     90 % 0 mm
01:49 -8.3 °C -9.2 °C 34567.7 hPa Calm     90 % 0 mm
01:54 -8.4 °C -9.2 °C 34567.7 hPa Calm     91 % 0 mm
01:59 -8.4 °C -9.3 °C 34567.7 hPa Calm     91 % 0 mm
02:04 -8.5 °C -9.2 °C 34567.7 hPa Calm     92 % 0 mm
02:09 -8.6 °C -9.3 °C 34567.7 hPa Calm     92 % 0 mm
02:14 -8.6 °C -9.3 °C 34567.7 hPa Calm     92 % 0 mm
02:19 -8.7 °C -9.4 °C 34567.7 hPa Calm     92 % 0 mm
02:24 -8.7 °C -9.4 °C 34554.1 hPa Calm     92 % 0 mm
02:29 -8.8 °C -9.4 °C 34554.1 hPa Calm     93 % 0 mm
02:34 -8.8 °C -9.4 °C 34554.1 hPa Calm     93 % 0 mm
02:39 -8.8 °C -9.4 °C 34554.1 hPa Calm     93 % 0 mm
02:44 -8.9 °C -9.6 °C 34554.1 hPa Calm     93 % 0 mm
02:49 -9 °C -9.6 °C 34554.1 hPa Calm     93 % 0 mm
02:54 -9.1 °C -9.7 °C 34554.1 hPa Calm     93 % 0 mm
02:59 -9.1 °C -9.7 °C 34554.1 hPa Calm     93 % 0 mm
03:04 -9.2 °C -9.8 °C 34554.1 hPa Calm     93 % 0 mm
03:09 -9.2 °C -9.8 °C 34554.1 hPa Calm     94 % 0 mm
03:14 -9.2 °C -9.8 °C 34554.1 hPa Calm     94 % 0 mm
03:19 -9.2 °C -9.8 °C 34554.1 hPa Calm     94 % 0 mm
03:24 -9.2 °C -9.8 °C 34554.1 hPa Calm     94 % 0 mm
03:29 -9.2 °C -9.7 °C 34554.1 hPa Calm     94 % 0 mm
03:34 -9.2 °C -9.8 °C 34544 hPa Calm     94 % 0 mm
03:39 -9.2 °C -9.8 °C 34544 hPa Calm     94 % 0 mm
03:44 -9.2 °C -9.7 °C 34544 hPa Calm     95 % 0 mm
03:49 -9.3 °C -9.7 °C 34544 hPa Calm     95 % 0 mm
03:54 -9.3 °C -9.7 °C 34544 hPa Calm     95 % 0 mm
03:58 -9.3 °C -9.8 °C 34544 hPa Calm     95 % 0 mm
04:04 -9.4 °C -9.8 °C 34544 hPa Calm     95 % 0 mm
04:09 -9.4 °C -9.9 °C 34544 hPa Calm     95 % 0 mm
04:14 -9.4 °C -9.9 °C 34544 hPa Calm     95 % 0 mm
04:19 -9.5 °C -9.9 °C 34544 hPa Calm     95 % 0 mm
04:24 -9.5 °C -9.9 °C 34544 hPa Calm     95 % 0 mm
04:29 -9.6 °C -10 °C 34544 hPa Calm     95 % 0 mm
04:34 -9.6 °C -10.1 °C 34544 hPa Calm     95 % 0 mm
04:39 -9.6 °C -10.1 °C 34544 hPa Calm     95 % 0 mm
04:44 -9.6 °C -10.1 °C 34544 hPa Calm     95 % 0 mm
04:49 -9.7 °C -10.1 °C 34533.8 hPa Calm     95 % 0 mm
04:54 -9.7 °C -10.2 °C 34533.8 hPa Calm     95 % 0 mm
04:59 -9.7 °C -10.1 °C 34533.8 hPa Calm     96 % 0 mm
05:04 -9.7 °C -10.1 °C 34533.8 hPa Calm     96 % 0 mm
05:09 -9.8 °C -10.1 °C 34533.8 hPa Calm     96 % 0 mm
05:14 -9.8 °C -10.1 °C 34533.8 hPa Calm     96 % 0 mm
05:19 -9.8 °C -10.1 °C 34533.8 hPa Calm     96 % 0 mm
05:24 -9.7 °C -10.1 °C 34533.8 hPa Calm     96 % 0 mm
05:29 -9.7 °C -10.1 °C 34533.8 hPa Calm     96 % 0 mm
05:33 -9.7 °C -10 °C 34533.8 hPa Calm     96 % 0 mm
05:39 -9.7 °C -10 °C 34533.8 hPa Calm     96 % 0 mm
05:44 -9.7 °C -10 °C 34533.8 hPa Calm     96 % 0 mm
05:49 -9.7 °C -10 °C 34533.8 hPa Calm     96 % 0 mm
05:54 -9.7 °C -10 °C 34533.8 hPa Calm     96 % 0 mm
05:59 -9.8 °C -10.1 °C 34533.8 hPa Calm     96 % 0 mm
06:04 -9.7 °C -10.1 °C 34533.8 hPa Calm     96 % 0 mm
06:09 -9.7 °C -10.1 °C 34533.8 hPa Calm     96 % 0 mm
06:14 -9.7 °C -9.9 °C 34533.8 hPa Calm     97 % 0 mm
06:19 -9.7 °C -9.9 °C 34533.8 hPa Calm     97 % 0 mm
06:24 -9.6 °C -9.9 °C 34533.8 hPa Calm     97 % 0 mm
06:29 -9.4 °C -9.7 °C 34533.8 hPa Calm     97 % 0 mm
06:34 -9.4 °C -9.7 °C 34533.8 hPa Calm     97 % 0 mm
06:39 -9.3 °C -9.6 °C 34533.8 hPa Calm     97 % 0 mm
06:44 -9.3 °C -9.6 °C 34533.8 hPa Calm     97 % 0 mm
06:49 -9.2 °C -9.5 °C 34533.8 hPa Calm     97 % 0 mm
06:54 -9.1 °C -9.4 °C 34533.8 hPa Calm     97 % 0 mm
06:59 -9.1 °C -9.4 °C 34533.8 hPa Calm     97 % 0 mm
07:04 -9.1 °C -9.3 °C 34533.8 hPa Calm     97 % 0 mm
07:09 -9 °C -9.3 °C 34533.8 hPa Calm     97 % 0 mm
07:14 -9 °C -9.3 °C 34533.8 hPa Calm     96 % 0 mm
07:19 -8.9 °C -9.3 °C 34520.3 hPa Calm     96 % 0 mm
07:24 -8.9 °C -9.2 °C 34533.8 hPa Calm     96 % 0 mm
07:29 -8.8 °C -9.2 °C 34520.3 hPa Calm     96 % 0 mm
07:34 -8.8 °C -9.1 °C 34533.8 hPa Calm     96 % 0 mm
07:39 -8.7 °C -9.1 °C 34533.8 hPa Calm     96 % 0 mm
07:44 -8.7 °C -9.1 °C 34533.8 hPa Calm     96 % 0 mm
07:49 -8.7 °C -9.2 °C 34533.8 hPa Calm     95 % 0 mm
07:54 -8.7 °C -9.1 °C 34533.8 hPa Calm     95 % 0 mm
07:59 -8.6 °C -9 °C 34520.3 hPa Calm     95 % 0 mm
08:03 -8.6 °C -9 °C 34533.8 hPa Calm     95 % 0 mm
08:09 -8.6 °C -9.1 °C 34533.8 hPa Calm     94 % 0 mm
08:14 -8.5 °C -9.1 °C 34533.8 hPa Calm     94 % 0 mm
08:19 -8.5 °C -9.1 °C 34533.8 hPa Calm     94 % 0 mm
08:24 -8.4 °C -9 °C 34520.3 hPa Calm     94 % 0 mm
08:29 -8.4 °C -9.1 °C 34533.8 hPa Calm     93 % 0 mm
08:34 -8.4 °C -9 °C 34533.8 hPa Calm   2.6 km/h 93 % 0 mm
08:39 -8.4 °C -9 °C 34533.8 hPa Calm     93 % 0 mm
08:44 -8.3 °C -8.9 °C 34533.8 hPa Calm     93 % 0 mm
08:49 -8.3 °C -9 °C 34533.8 hPa Calm     92 % 0 mm
08:54 -8.3 °C -9 °C 34533.8 hPa Calm     92 % 0 mm
08:59 -8.3 °C -9.1 °C 34533.8 hPa Calm   5.1 km/h 91 % 0 mm
09:04 -8.2 °C -9.1 °C 34533.8 hPa Calm     91 % 0 mm
09:09 -8.2 °C -9.1 °C 34533.8 hPa Calm   2.6 km/h 90 % 0 mm
09:14 -8.2 °C -9.2 °C 34533.8 hPa Calm     89 % 0 mm
09:19 -8.1 °C -9.1 °C 34533.8 hPa Calm     89 % 0 mm
09:24 -8.1 °C -9.1 °C 34533.8 hPa Calm     89 % 0 mm
09:29 -8 °C -9.1 °C 34533.8 hPa Calm     88 % 0 mm
09:34 -7.9 °C -9.1 °C 34533.8 hPa Calm     88 % 0 mm
09:38 -7.9 °C -9.1 °C 34533.8 hPa Calm   2.6 km/h 87 % 0 mm
09:44 -7.8 °C -9.2 °C 34533.8 hPa Calm     86 % 0 mm
09:49 -7.8 °C -9.2 °C 34533.8 hPa SW 14 km/h 12.9 km/h 86 % 0 mm
09:54 -7.8 °C -9.3 °C 34533.8 hPa Calm   10.3 km/h 85 % 0 mm
09:59 -7.8 °C -9.3 °C 34533.8 hPa Calm   10.3 km/h 85 % 0 mm
10:04 -7.8 °C -9.2 °C 34533.8 hPa Calm   5.1 km/h 86 % 0 mm
10:09 -7.8 °C -9.2 °C 34533.8 hPa WSW 2.9 km/h 2.6 km/h 86 % 0 mm
10:14 -7.8 °C -9.2 °C 34533.8 hPa Calm     86 % 0 mm
10:19 -7.8 °C -9.2 °C 34533.8 hPa Calm   5.1 km/h 86 % 0 mm
10:24 -7.8 °C -9.2 °C 34520.3 hPa Calm   7.7 km/h 86 % 0 mm
10:28 -7.8 °C -9.1 °C 34533.8 hPa ESE 2.9 km/h 2.6 km/h 86 % 0 mm
10:34 -7.7 °C -9.1 °C 34533.8 hPa Calm   2.6 km/h 86 % 0 mm
10:39 -7.7 °C -9 °C 34533.8 hPa ESE 2.9 km/h 2.6 km/h 86 % 0 mm
10:44 -7.7 °C -9.1 °C 34533.8 hPa Calm   2.6 km/h 85 % 0 mm
10:49 -7.6 °C -8.9 °C 34520.3 hPa Calm   2.6 km/h 86 % 0 mm
10:54 -7.6 °C -9 °C 34520.3 hPa Calm   2.6 km/h 85 % 0 mm
10:59 -7.4 °C -9 °C 34520.3 hPa Calm     84 % 0 mm
11:04 -7.4 °C -9 °C 34520.3 hPa Calm   2.6 km/h 84 % 0 mm
11:09 -7.3 °C -8.9 °C 34520.3 hPa Calm   2.6 km/h 84 % 0 mm
11:14 -7.3 °C -8.9 °C 34520.3 hPa Calm   10.3 km/h 83 % 0 mm
11:19 -7.2 °C -8.8 °C 34520.3 hPa Calm   2.6 km/h 83 % 0 mm
11:24 -7 °C -8.8 °C 34520.3 hPa SW 2.9 km/h 5.1 km/h 82 % 0 mm
11:29 -6.9 °C -8.8 °C 34520.3 hPa Calm   5.1 km/h 80 % 0 mm
11:34 -6.8 °C -8.8 °C 34520.3 hPa Calm   5.1 km/h 80 % 0 mm
11:39 -6.7 °C -8.7 °C 34520.3 hPa Calm   5.1 km/h 80 % 0 mm
11:44 -6.7 °C -8.7 °C 34520.3 hPa Calm   7.7 km/h 80 % 0 mm
11:49 -6.5 °C -8.6 °C 34520.3 hPa Calm   5.1 km/h 79 % 0 mm
11:54 -6.4 °C -8.7 °C 34510.1 hPa Calm   2.6 km/h 78 % 0 mm
11:59 -6.3 °C -8.6 °C 34520.3 hPa Calm   7.7 km/h 78 % 0 mm
12:04 -6.4 °C -8.6 °C 34520.3 hPa Calm   5.1 km/h 78 % 0 mm
12:09 -6.3 °C -8.6 °C 34510.1 hPa Calm   10.3 km/h 77 % 0 mm
12:14 -6.2 °C -8.5 °C 34520.3 hPa Calm   10.3 km/h 77 % 0 mm
12:19 -6 °C -8.7 °C 34520.3 hPa Calm   18.2 km/h 74 % 0 mm
12:24 -5.9 °C -8.5 °C 34520.3 hPa Calm   5.1 km/h 75 % 0 mm
12:29 -5.8 °C -8.3 °C 34520.3 hPa Calm   10.3 km/h 75 % 0 mm
12:34 -5.7 °C -8.4 °C 34510.1 hPa Calm   2.6 km/h 74 % 0 mm
12:39 -5.6 °C -8.4 °C 34510.1 hPa SE 8 km/h 10.3 km/h 73 % 0 mm
12:44 -5.5 °C -8.3 °C 34510.1 hPa ESE 2.9 km/h 7.7 km/h 73 % 0 mm
12:49 -5.2 °C -8.1 °C 34510.1 hPa SSW 5.1 km/h 7.7 km/h 73 % 0 mm
12:54 -4.9 °C -8.1 °C 34496.6 hPa Calm   10.3 km/h 70 % 0 mm
12:59 -4.7 °C -8 °C 34496.6 hPa Calm   7.7 km/h 69 % 0 mm
13:01 -4.6 °C -7.9 °C 34496.6 hPa SSE 8 km/h 7.7 km/h 69 % 0 mm
13:09 -4.2 °C -8 °C 34496.6 hPa South 2.9 km/h 5.1 km/h 66 % 0 mm
13:14 -4.1 °C -7.9 °C 34496.6 hPa SSE 5.1 km/h 10.3 km/h 66 % 0 mm
13:19 -4.3 °C -8.2 °C 34496.6 hPa SE 5.1 km/h 12.9 km/h 65 % 0 mm
13:24 -4.2 °C -7.9 °C 34496.6 hPa SSE 5.1 km/h 12.9 km/h 66 % 0 mm
13:29 -4.1 °C -7.9 °C 34486.4 hPa Calm   2.6 km/h 65 % 0 mm
13:34 -3.9 °C -8.1 °C 34486.4 hPa Calm   15.6 km/h 63 % 0 mm
13:39 -3.8 °C -8.2 °C 34486.4 hPa Calm   5.1 km/h 62 % 0 mm
13:44 -3.7 °C -7.9 °C 34486.4 hPa Calm   10.3 km/h 63 % 0 mm
13:49 -3.6 °C -8.1 °C 34486.4 hPa Calm   10.3 km/h 61 % 0 mm
13:54 -3.6 °C -8.1 °C 34476.3 hPa Calm     61 % 0 mm
13:59 -3.4 °C -7.9 °C 34476.3 hPa East 2.9 km/h 5.1 km/h 61 % 0 mm
14:04 -3.6 °C -7.9 °C 34476.3 hPa NE 11.1 km/h 10.3 km/h 62 % 0 mm
14:09 -3.6 °C -7.9 °C 34476.3 hPa SSE 5.1 km/h 5.1 km/h 62 % 0 mm
14:14 -3.4 °C -7.9 °C 34462.7 hPa SSE 2.9 km/h 5.1 km/h 61 % 0 mm
14:19 -3.2 °C -8 °C 34462.7 hPa SE 2.9 km/h 7.7 km/h 59 % 0 mm
14:24 -2.9 °C -8 °C 34462.7 hPa Calm     57 % 0 mm
14:29 -2.9 °C -7.9 °C 34462.7 hPa Calm   12.9 km/h 58 % 0 mm
14:34 -2.9 °C -7.9 °C 34462.7 hPa Calm   10.3 km/h 58 % 0 mm
14:39 -2.7 °C -7.9 °C 34462.7 hPa Calm   2.6 km/h 57 % 0 mm
14:44 -2.6 °C -7.9 °C 34462.7 hPa North 5.1 km/h 7.7 km/h 56 % 0 mm
14:48 -2.7 °C -8 °C 34462.7 hPa Calm   10.3 km/h 56 % 0 mm
Weerstation Boxtel
Gegevens verzameld door Weather Underground - 3.25 mb

Script ontwikkeld door  Jim McMurry - jmcmurry@mwt.net Aangepast voor de template door  Wim van der Kuil - Leuven-Template.eu

U vindt ons ook hier:

Het Weer Aktueel

UK Metoffice

European Weather Network

Weather Underground

AWEKAS

Citizen Weather Observer Program (CWOP)

HAMweather, WeatherForYou, PWS Weather

Apparatuur in gebruik:

Weerstation
Davis Vue ISS

Weerprogramma
Meteobridge

Weercomputer
Asus WL -330N3G

Webleverancier
Weerhuisje.nl

Davis Vue ISS

Meteobridge

Asus WL -330N3G

Weerhuisje.nl